Погода в Кууджуарапике

Канада     55°16′39″N   77°45′44″W
темп.,
°C
ветер,
м/с
пор.,
м/с
влажн.,
%
обл.,
%
осадки,
мм/ч
давл.,
гПа
погр.,
м
5 марта, пт
пт501:00−12ссз81296100 2.4 1009497
04:00−9ссз91495100 1.1 1008533
07:00−9с71096100 1.8 1009297
10:00−9с81294100 0.3 1010672
13:00−8ссз91294100 1.9 1010851
16:00−11ссз101495100 1.4 1009623
19:00−12ссз101595100 2.8 1011546
22:00−13ссз91495100 0.9 1011570
6 марта, сб
сб601:00−15ссз101495100 1.6 1011516
04:00−17ссз91496100 0.5 1012526
07:00−19ссз91397100 1.0 1014518
10:00−18ссз91296100 0.3 1015551
13:00−17ссз81095100 0.7 1016535
16:00−18ссз81096100 0.1 1017507
19:00−20ссз7998100 0.3 1021378
22:00−23сз46100100 0.1 1022126
7 марта, вс
вс701:00−25зсз34100100 0.1 102345
04:00−26з33100100 0.0 102524
07:00−27зюз23100100 0.1 102620
10:00−23юз459383 0.0 1026231
13:00−18юз568989 0.0 1026330
16:00−16ююз579198 0.0 1025323
19:00−19ю689478 0.0 1024110
22:00−18ююв9148715 0.0 1022197
8 марта, пн
пн801:00−17ююв11168557 0.0 1019238
04:00−15ююв121983100 0.0 1015282
07:00−13ююв121878100 0.0 1012330
10:00−10ю111693100 1.3 1009444
13:00−5ю10149199 1.8 1007499
16:00−2ююз81194100 0.4 1006537
19:00−2зсз111596100 1.5 1008517
22:00−9з71297100 0.1 1011267
9 марта, вт
вт901:00−12з61097100 0.3 1013230
04:00−15з589999 0.1 1017120
07:00−17зюз569996 0.1 101969
10:00−13зюз689269 0.0 1020264
13:00−9зюз688740 0.0 1020364
16:00−6юз469085 0.0 1020415
19:00−6ююв579592 0.1 1018170
22:00−4ююв5995100 1.1 1016251